Location: Unspecified
(38.9820°N, 94.4650°W)
Time: 19:08:23
(UTC-05:00)

Okean 3 - Visible Passes

Search period start: 28 May 2017 00:00
Search period end: 07 June 2017 00:00
Orbit: 578 x 602 km, 82.5° (Epoch: 27 May)

Date Brightness Start Highest point End Pass type
(mag) Time Alt. Az. Time Alt. Az. Time Alt. Az.
04 Jun 6.6 04:50:03 10° NE 04:52:28 15° ENE 04:54:51 10° ESE visible
05 Jun 6.3 04:57:33 10° NNE 05:00:53 21° ENE 05:04:10 10° SE visible
06 Jun 5.5 05:05:23 10° NNE 05:09:15 31° ENE 05:13:05 10° SE visible
